Weather History for KFMH - February, 2013

Change the Weather History Date:

Sunday, February 3, 2013

  Actual Average Record
Temperature  
Mean Temperature 26 °F -  
Max Temperature 32 °F 36 °F 55 °F (1999)
Min Temperature 19 °F 21 °F 3 °F (2015)
Degree Days  
Heating Degree Days 40    
Moisture  
Dew Point 21 °F    
Average Humidity 80    
Maximum Humidity 93    
Minimum Humidity 64    
Precipitation  
Precipitation 0.00 in - - ()
Sea Level Pressure  
Sea Level Pressure 29.85 in    
Wind  
Wind Speed 7 mph (NNW)    
Max Wind Speed 15 mph    
Max Gust Speed 21 mph    
Visibility 9 miles    
Events Rain , Snow , Thunderstorm    
Averages and records for this station are not official NWS values.
T = Trace of Precipitation, MM = Missing Value Source: NWS Daily Summary

Daily Weather History Graph

Daily Weather History Graph

Search for Another Location

Airport or City:

Trip Planner

Search our weather history database for the weather conditions in past years. The results will help you decide how hot, cold, wet, or windy it might be!

Date:

Astronomy

Feb. 03, 2013 Rise Set
Actual Time 6:51 AM EST 5:00 PM EST
Civil Twilight 6:22 AM EST 5:29 PM EST
Nautical Twilight 5:49 AM EST 6:02 PM EST
Astronomical Twilight 5:16 AM EST 6:35 PM EST
Moon 12:15 AM EST (2/3) 10:35 AM EST (2/3)
Length of Visible Light 11h 07m
Length of Day
10h 08m
Waning Gibbous, 49% of the Moon is Illuminated
Feb 3
Waning Gibbous
Feb 10
New
Feb 17
First Quarter
Feb 25
Full
Mar 4
Last Quarter

Hourly Weather History & Observations

Time (EST) Temp. Windchill Dew Point Humidity Pressure Visibility Wind Dir Wind Speed Gust Speed Precip Events Conditions
12:15 AM 26.6 °F 19.1 °F 24.8 °F 93% 30.05 in 2.5 mi WNW 6.9 mph - 0.07 in Snow Light Snow
12:35 AM 26.6 °F 17.5 °F 24.8 °F 93% 30.05 in 2.5 mi WNW 9.2 mph - 0.13 in Snow Light Snow
12:55 AM 26.6 °F 16.8 °F 23.0 °F 86% 30.04 in 3.0 mi WNW 10.4 mph - 0.18 in Snow Light Snow
1:15 AM 24.8 °F 16.1 °F 23.0 °F 93% 30.03 in 3.0 mi NW 8.1 mph - 0.03 in Snow Light Snow
1:35 AM 24.8 °F 15.3 °F 21.2 °F 86% 30.02 in 3.0 mi NW 9.2 mph - 0.07 in Snow Light Snow
1:55 AM 24.8 °F 16.9 °F 21.2 °F 86% 30.02 in 4.0 mi NW 6.9 mph - 0.10 in Snow Light Snow
2:15 AM 24.8 °F 17.9 °F 19.4 °F 80% 30.01 in 5.0 mi NNW 5.8 mph - N/A Snow Light Snow
2:35 AM 24.8 °F 20.5 °F 19.4 °F 80% 30.01 in 8.0 mi NW 3.5 mph - N/A Snow Light Snow
2:55 AM 24.8 °F - 19.4 °F 80% 30.01 in 10.0 mi Calm Calm - N/A   Unknown
3:15 AM 24.8 °F - 19.4 °F 80% 30.00 in 10.0 mi Calm Calm - N/A   Unknown
3:35 AM 24.8 °F - 17.6 °F 74% 30.00 in 10.0 mi Calm Calm - N/A   Unknown
3:55 AM 24.8 °F 19.1 °F 17.6 °F 74% 29.99 in 10.0 mi NNW 4.6 mph - N/A Thunderstorm Unknown
4:15 AM 24.8 °F 19.1 °F 17.6 °F 74% 29.98 in 10.0 mi North 4.6 mph - N/A   Unknown
4:35 AM 24.8 °F 17.9 °F 17.6 °F 74% 29.98 in 10.0 mi North 5.8 mph - N/A   Unknown
4:55 AM 23.0 °F 18.4 °F 17.6 °F 80% 29.97 in 10.0 mi North 3.5 mph - N/A   Unknown
5:15 AM 23.0 °F 18.4 °F 17.6 °F 80% 29.97 in 10.0 mi North 3.5 mph - N/A   Unknown
5:35 AM 23.0 °F 18.4 °F 19.4 °F 86% 29.96 in 6.0 mi NW 3.5 mph - N/A   Unknown
5:55 AM 23.0 °F 18.4 °F 19.4 °F 86% 29.95 in 6.0 mi NW 3.5 mph - N/A Snow Light Snow
6:15 AM 21.2 °F 16.4 °F 19.4 °F 93% 29.94 in 7.0 mi NW 3.5 mph - N/A Snow Light Snow
6:35 AM 19.4 °F 14.3 °F 17.6 °F 93% 29.95 in 10.0 mi NW 3.5 mph - N/A   Unknown
6:55 AM 21.2 °F 14.9 °F 17.6 °F 86% 29.94 in 10.0 mi NW 4.6 mph - N/A   Unknown
7:15 AM 23.0 °F 18.4 °F 19.4 °F 86% 29.95 in 10.0 mi NW 3.5 mph - N/A   Unknown
7:35 AM 23.0 °F 17.0 °F 19.4 °F 86% 29.97 in 10.0 mi WSW 4.6 mph - N/A   Unknown
7:55 AM 23.0 °F 18.4 °F 19.4 °F 86% 29.97 in 10.0 mi West 3.5 mph - N/A   Unknown
8:15 AM 23.0 °F 18.4 °F 19.4 °F 86% 29.96 in 10.0 mi West 3.5 mph - N/A   Unknown
8:35 AM 23.0 °F - 19.4 °F 86% 29.96 in 9.0 mi Calm Calm - N/A   Unknown
8:55 AM 24.8 °F 20.5 °F 19.4 °F 80% 29.95 in 5.0 mi WNW 3.5 mph - N/A   Unknown
9:15 AM 24.8 °F 17.9 °F 21.2 °F 86% 29.93 in 6.0 mi NW 5.8 mph - N/A   Unknown
9:35 AM 24.8 °F 16.9 °F 21.2 °F 86% 29.92 in 10.0 mi NW 6.9 mph - N/A   Unknown
9:55 AM 24.8 °F 16.1 °F 21.2 °F 86% 29.91 in 10.0 mi NW 8.1 mph - N/A   Unknown
10:15 AM 26.6 °F 19.1 °F 23.0 °F 86% 29.91 in 10.0 mi NW 6.9 mph - N/A   Unknown
10:35 AM 26.6 °F 19.1 °F 23.0 °F 86% 29.89 in 10.0 mi NW 6.9 mph - N/A   Unknown
10:55 AM 28.4 °F 21.2 °F 23.0 °F 80% 29.87 in 10.0 mi NW 6.9 mph - N/A   Unknown
11:15 AM 30.2 °F 23.4 °F 23.0 °F 75% 29.85 in 10.0 mi North 6.9 mph - N/A   Unknown
11:35 AM 32.0 °F 27.5 °F 23.0 °F 69% 29.83 in 10.0 mi North 4.6 mph - N/A   Unknown
11:55 AM 32.0 °F 27.5 °F 23.0 °F 69% 29.82 in 10.0 mi NNE 4.6 mph - N/A   Unknown
12:15 PM 32.0 °F 25.6 °F 23.0 °F 69% 29.82 in 10.0 mi North 6.9 mph - N/A   Unknown
12:35 PM 32.0 °F 24.8 °F 23.0 °F 69% 29.81 in 10.0 mi NNE 8.1 mph - N/A   Unknown
12:55 PM 32.0 °F 25.6 °F 23.0 °F 69% 29.80 in 10.0 mi NE 6.9 mph - N/A   Unknown
1:15 PM 32.0 °F 24.8 °F 23.0 °F 69% 29.79 in 10.0 mi North 8.1 mph - N/A   Unknown
1:35 PM 32.0 °F 23.0 °F 23.0 °F 69% 29.77 in 10.0 mi NNE 11.5 mph - N/A   Unknown
1:55 PM 32.0 °F 26.4 °F 23.0 °F 69% 29.77 in 10.0 mi NNW 5.8 mph - N/A   Unknown
2:15 PM 32.0 °F 24.8 °F 21.2 °F 64% 29.76 in 10.0 mi NNW 8.1 mph - N/A   Unknown
2:35 PM 32.0 °F 24.8 °F 23.0 °F 69% 29.76 in 10.0 mi North 8.1 mph - N/A   Unknown
2:55 PM 32.0 °F 26.4 °F 23.0 °F 69% 29.76 in 10.0 mi North 5.8 mph - N/A   Unknown
3:15 PM 32.0 °F 24.8 °F 23.0 °F 69% 29.76 in 10.0 mi North 8.1 mph - N/A   Unknown
3:35 PM 32.0 °F 24.8 °F 23.0 °F 69% 29.75 in 10.0 mi NNW 8.1 mph - N/A   Unknown
3:55 PM 30.2 °F 20.8 °F 23.0 °F 75% 29.74 in 10.0 mi North 11.5 mph 16.1 mph N/A   Unknown
4:15 PM 28.4 °F 19.7 °F 23.0 °F 80% 29.73 in 10.0 mi North 9.2 mph - N/A   Unknown
4:35 PM 28.4 °F 19.1 °F 23.0 °F 80% 29.71 in 10.0 mi North 10.4 mph 16.1 mph N/A   Unknown
4:55 PM 28.4 °F 21.2 °F 23.0 °F 80% 29.71 in 10.0 mi NNW 6.9 mph - N/A   Unknown
5:15 PM 28.4 °F 20.4 °F 23.0 °F 80% 29.72 in 10.0 mi NNW 8.1 mph - N/A   Unknown
5:35 PM 28.4 °F 18.0 °F 23.0 °F 80% 29.72 in 10.0 mi NNW 12.7 mph 19.6 mph N/A   Unknown
5:55 PM 26.6 °F 17.5 °F 23.0 °F 86% 29.72 in 10.0 mi NNW 9.2 mph 18.4 mph N/A   Unknown
6:15 PM 26.6 °F 16.8 °F 23.0 °F 86% 29.72 in 10.0 mi NNW 10.4 mph 19.6 mph N/A   Unknown
6:35 PM 26.6 °F 15.7 °F 23.0 °F 86% 29.72 in 10.0 mi NW 12.7 mph 20.7 mph N/A   Unknown
6:55 PM 26.6 °F 16.8 °F 23.0 °F 86% 29.73 in 10.0 mi NNW 10.4 mph 18.4 mph N/A   Unknown
7:15 PM 26.6 °F 15.7 °F 21.2 °F 80% 29.72 in 10.0 mi NNW 12.7 mph 18.4 mph N/A   Unknown
7:35 PM 26.6 °F 17.5 °F 21.2 °F 80% 29.72 in 10.0 mi NNW 9.2 mph 18.4 mph N/A   Unknown
7:55 PM 26.6 °F 15.7 °F 21.2 °F 80% 29.71 in 10.0 mi NNW 12.7 mph - N/A   Unknown
8:15 PM 26.6 °F 16.8 °F 21.2 °F 80% 29.71 in 10.0 mi NNW 10.4 mph - N/A   Unknown
8:35 PM 26.6 °F 15.7 °F 21.2 °F 80% 29.70 in 10.0 mi NNW 12.7 mph 18.4 mph N/A   Unknown
8:55 PM 26.6 °F 17.5 °F 21.2 °F 80% 29.70 in 10.0 mi NNW 9.2 mph 19.6 mph N/A   Unknown
9:15 PM 26.6 °F 16.2 °F 21.2 °F 80% 29.69 in 10.0 mi NW 11.5 mph 19.6 mph N/A   Unknown
9:35 PM 24.8 °F 12.9 °F 21.2 °F 86% 29.69 in 10.0 mi NNW 13.8 mph 20.7 mph N/A   Unknown
9:55 PM 24.8 °F 14.0 °F 21.2 °F 86% 29.69 in 10.0 mi NW 11.5 mph 16.1 mph N/A   Unknown
10:15 PM 24.8 °F 14.0 °F 19.4 °F 80% 29.69 in 10.0 mi NNW 11.5 mph 19.6 mph N/A   Unknown
10:35 PM 24.8 °F 13.4 °F 19.4 °F 80% 29.69 in 10.0 mi NW 12.7 mph 20.7 mph N/A Rain Light Freezing Rain
10:55 PM 24.8 °F 13.4 °F 19.4 °F 80% 29.69 in 5.0 mi NNW 12.7 mph 17.3 mph N/A Snow Light Snow
11:15 PM 24.8 °F 12.9 °F 19.4 °F 80% 29.70 in 5.0 mi NW 13.8 mph 20.7 mph 0.02 in Snow Light Snow
11:35 PM 24.8 °F 13.4 °F 19.4 °F 80% 29.70 in 10.0 mi NNW 12.7 mph 19.6 mph 0.03 in Snow Light Snow
11:55 PM 24.8 °F 14.0 °F 19.4 °F 80% 29.71 in 10.0 mi NW 11.5 mph 18.4 mph 0.03 in Snow Light Snow